Weather History for KMLI - September, 2012

Change the Weather History Date:

Wednesday, September 19, 2012

  Actual Average Record
Temperature  
Mean Temperature 58 °F 64 °F  
Max Temperature 76 °F 76 °F 93 °F (1948)
Min Temperature 40 °F 52 °F 34 °F (1991)
Degree Days  
Heating Degree Days 7 4  
Month to date heating degree days 46 35  
Since 1 July heating degree days 49 43  
Cooling Degree Days 0 3  
Month to date cooling degree days 81 86  
Year to date cooling degree days 1200 969  
Growing Degree Days 7 (Base 50)    
Moisture  
Dew Point 42 °F    
Average Humidity 60    
Maximum Humidity 86    
Minimum Humidity 33    
Precipitation  
Precipitation T in 0.10 in 1.56 in (1900)
Month to date precipitation 2.18 2.03  
Year to date precipitation 20.22 29.19  
Snow  
Snow 0.00 in 0.00 in - ()
Month to date snowfall T 0.0  
Since 1 July snowfall T 0.0  
Since 1 September snowfall T 0.0  
Snow Depth 0.00 in    
Sea Level Pressure  
Sea Level Pressure 29.92 in    
Wind  
Wind Speed 11 mph (SSW)    
Max Wind Speed 26 mph    
Max Gust Speed 36 mph    
Visibility 10 miles    
Events      
T = Trace of Precipitation, MM = Missing Value Source: NWS Daily Summary

Daily Weather History Graph

Daily Weather History Graph

Search for Another Location

Airport or City:

Trip Planner

Search our weather history database for the weather conditions in past years. The results will help you decide how hot, cold, wet, or windy it might be!

Date:

Astronomy

Sep. 19, 2012 Rise Set
Actual Time 6:46 AM CDT 7:03 PM CDT
Civil Twilight 6:19 AM CDT 7:31 PM CDT
Nautical Twilight 5:46 AM CDT 8:03 PM CDT
Astronomical Twilight 5:13 AM CDT 8:36 PM CDT
Moon 11:00 AM CDT (9/19) 9:09 PM CDT (9/19)
Length of Visible Light 13h 11m
Length of Day
12h 16m
Waxing Crescent, 17% of the Moon is Illuminated
Sep 19
Waxing Crescent
Sep 22
First Quarter
Sep 29
Full
Oct 8
Last Quarter
Oct 15
New

Hourly Weather History & Observations

Time (CDT) Temp. Windchill Dew Point Humidity Pressure Visibility Wind Dir Wind Speed Gust Speed Precip Events Conditions
12:52 AM 41.0 °F - 37.9 °F 89% 30.05 in 10.0 mi Calm Calm - N/A   Clear
1:52 AM 42.8 °F - 37.4 °F 81% 30.03 in 10.0 mi Calm Calm - N/A   Clear
2:52 AM 39.9 °F - 36.0 °F 86% 30.03 in 10.0 mi Calm Calm - N/A   Clear
3:52 AM 44.1 °F - 37.0 °F 76% 30.03 in 10.0 mi Calm Calm - N/A   Clear
4:52 AM 44.1 °F - 37.0 °F 76% 30.02 in 10.0 mi Calm Calm - N/A   Mostly Cloudy
5:52 AM 46.0 °F 44.8 °F 37.0 °F 71% 30.03 in 10.0 mi South 3.5 mph - N/A   Clear
6:52 AM 48.9 °F - 37.9 °F 66% 30.01 in 10.0 mi SSW 10.4 mph - N/A   Overcast
7:52 AM 51.1 °F - 39.0 °F 63% 30.02 in 10.0 mi SSW 9.2 mph - N/A   Overcast
8:52 AM 57.0 °F - 39.9 °F 53% 30.00 in 10.0 mi South 12.7 mph 20.7 mph N/A   Mostly Cloudy
9:52 AM 60.1 °F - 41.0 °F 49% 29.97 in 10.0 mi South 13.8 mph 23.0 mph N/A   Clear
10:52 AM 64.9 °F - 42.1 °F 43% 29.96 in 10.0 mi SSW 12.7 mph 27.6 mph N/A   Clear
11:52 AM 69.1 °F - 41.0 °F 36% 29.93 in 10.0 mi South 21.9 mph 33.4 mph N/A   Clear
12:52 PM 72.0 °F - 43.0 °F 35% 29.89 in 10.0 mi SSW 20.7 mph 34.5 mph N/A   Clear
1:52 PM 73.9 °F - 44.1 °F 34% 29.86 in 10.0 mi South 17.3 mph 28.8 mph N/A   Clear
2:52 PM 75.0 °F - 44.1 °F 33% 29.84 in 10.0 mi SSW 20.7 mph 29.9 mph N/A   Clear
3:52 PM 75.9 °F - 46.0 °F 35% 29.81 in 10.0 mi SSW 12.7 mph 28.8 mph N/A   Clear
4:52 PM 75.0 °F - 46.0 °F 36% 29.79 in 10.0 mi SW 17.3 mph 28.8 mph N/A   Clear
5:52 PM 73.9 °F - 46.0 °F 37% 29.76 in 10.0 mi SSW 15.0 mph 29.9 mph N/A   Clear
6:52 PM 72.0 °F - 46.9 °F 41% 29.78 in 10.0 mi SSW 11.5 mph 20.7 mph N/A   Clear
7:52 PM 70.0 °F - 48.0 °F 46% 29.79 in 10.0 mi SSW 12.7 mph 19.6 mph N/A   Clear
8:52 PM 70.0 °F - 48.0 °F 46% 29.78 in 10.0 mi South 16.1 mph 28.8 mph N/A   Partly Cloudy
9:52 PM 66.0 °F - 52.0 °F 60% 29.83 in 10.0 mi WNW 13.8 mph 20.7 mph 0.00 in   Mostly Cloudy
10:52 PM 66.0 °F - 52.0 °F 60% 29.85 in 10.0 mi West 4.6 mph - N/A   Mostly Cloudy
11:52 PM 66.0 °F - 44.1 °F 45% 29.87 in 10.0 mi NW 10.4 mph - N/A   Mostly Cloudy